Torna al catalogo

STARLINK-2493

AttivoComunicazioniVLEO
NORAD 48150·PAYLOAD·🇺🇸 United States

Lanciato Apr 7, 2021 da Cape Canaveral Space Force Station

Loading…

Prossimi Passaggi (prossime 24 ore)

TLE

AggiornatoSource: CelesTrak SupGP

Epoca: Sep 15, 2026, 00:51 UTC

1 48150C 21027BL  26258.03590278  .00015352  00000+0  49363-3 0  2588
2 48150  53.1605 351.5866 0001118  86.4044 116.9483 15.31697399    17

Traccia STARLINK-2493 in tempo reale con AllMySat

Download on the App Store